Lander, WY

1:53 AM MDT on July 23, 2017 (GMT -0600)
Hunt

Weather History for KLND - April, 2013

Change the Weather History Date:

Friday, April 12, 2013

  Actual Average Record
Temperature  
Mean Temperature 37 °F 43 °F  
Max Temperature 43 °F 55 °F 75 °F (1988)
Min Temperature 30 °F 30 °F 8 °F (1997)
Degree Days  
Heating Degree Days 28 22  
Month to date heating degree days 318 284  
Since 1 July heating degree days 6578 6903  
Cooling Degree Days 0 0  
Month to date cooling degree days 0 0  
Year to date cooling degree days 0 0  
Moisture  
Dew Point 27 °F    
Average Humidity 78    
Maximum Humidity 100    
Minimum Humidity 56    
Precipitation  
Precipitation 0.02 in 0.07 in 1.05 in (1945)
Month to date precipitation 1.80 0.66  
Year to date precipitation 4.20 2.81  
Snow  
Snow 0.10 in 0.60 in - ()
Month to date snowfall 20.7 7.1  
Since 1 July snowfall 78.0 76.8  
Snow Depth 4.00 in    
Sea Level Pressure  
Sea Level Pressure 29.91 in    
Wind  
Wind Speed 4 mph (ESE)    
Max Wind Speed 12 mph    
Max Gust Speed 15 mph    
Visibility 8 miles    
Events Snow    
T = Trace of Precipitation, MM = Missing Value Source: NWS Daily Summary

Daily Weather History Graph

Daily Weather History Graph

Search for Another Location

Airport or City:

Trip Planner

Search our weather history database for the weather conditions in past years. The results will help you decide how hot, cold, wet, or windy it might be!

Date:

Astronomy

Apr. 12, 2013 Rise Set
Actual Time 6:37 AM MDT 7:54 PM MDT
Civil Twilight 6:08 AM MDT 8:23 PM MDT
Nautical Twilight 5:33 AM MDT 8:58 PM MDT
Astronomical Twilight 4:56 AM MDT 9:35 PM MDT
Moon 7:46 AM MDT (4/12) 10:31 PM MDT (4/12)
Length of Visible Light 14h 14m
Length of Day
13h 16m
Waxing Crescent, 5% of the Moon is Illuminated
Apr 12
Waxing Crescent
Apr 18
First Quarter
Apr 25
Full
May 2
Last Quarter
May 9
New

Hourly Weather History & Observations

Time (MDT) Temp. Windchill Dew Point Humidity Pressure Visibility Wind Dir Wind Speed Gust Speed Precip Events Conditions
12:53 AM 34.0 °F 26.6 °F 27.0 °F 75% 29.88 in 10.0 mi WSW 9.2 mph - N/A   Clear
1:53 AM 32.0 °F - 26.1 °F 79% 29.89 in 10.0 mi Calm Calm - N/A   Scattered Clouds
2:03 AM 32.0 °F - 26.6 °F 80% 29.87 in 10.0 mi Calm Calm - N/A   Mostly Cloudy
2:53 AM 32.0 °F 25.6 °F 26.1 °F 79% 29.89 in 10.0 mi West 6.9 mph - N/A   Overcast
3:53 AM 35.1 °F 31.0 °F 28.9 °F 78% 29.88 in 10.0 mi WNW 4.6 mph - N/A   Overcast
4:50 AM 33.8 °F - 28.4 °F 81% 29.87 in 10.0 mi Calm Calm - N/A   Overcast
4:53 AM 33.1 °F - 28.0 °F 82% 29.88 in 10.0 mi Calm Calm - N/A   Overcast
5:43 AM 32.0 °F 24.8 °F 28.4 °F 87% 29.88 in 10.0 mi ENE 8.1 mph - N/A   Mostly Cloudy
5:53 AM 33.1 °F 25.5 °F 28.9 °F 85% 29.89 in 10.0 mi NE 9.2 mph - N/A   Overcast
6:06 AM 33.8 °F 25.8 °F 30.2 °F 87% 29.89 in 10.0 mi NE 10.4 mph - N/A   Overcast
6:14 AM 33.8 °F 27.0 °F 30.2 °F 87% 29.89 in 7.0 mi ENE 8.1 mph - N/A   Overcast
6:22 AM 32.0 °F 25.6 °F 30.2 °F 93% 29.89 in 0.8 mi ENE 6.9 mph - 0.00 in Snow Light Snow
6:53 AM 32.0 °F - 32.0 °F 100% 29.93 in 1.0 mi Calm Calm - 0.00 in   Mist
7:15 AM 32.0 °F 26.4 °F 30.2 °F 93% 29.92 in 2.5 mi West 5.8 mph - 0.00 in Snow Light Snow
7:25 AM 32.0 °F 24.8 °F 28.4 °F 87% 29.93 in 4.0 mi NNE 8.1 mph - 0.00 in Snow Light Snow
7:43 AM 32.0 °F 25.6 °F 26.6 °F 80% 29.95 in 6.0 mi North 6.9 mph - 0.00 in   Haze
7:53 AM 30.9 °F 24.3 °F 27.0 °F 85% 29.99 in 5.0 mi North 6.9 mph - 0.00 in Snow Light Snow
8:06 AM 30.2 °F 21.9 °F 26.6 °F 86% 29.97 in 4.0 mi North 9.2 mph - 0.01 in Snow Light Snow
8:53 AM 30.9 °F 26.2 °F 27.0 °F 85% 30.02 in 4.0 mi Variable 4.6 mph - 0.01 in Snow Light Snow
10:53 AM 35.1 °F 31.0 °F 25.0 °F 67% - 10.0 mi NE 4.6 mph - N/A   Unknown
11:53 AM 35.1 °F 31.0 °F 25.0 °F 67% 30.04 in 10.0 mi South 4.6 mph - N/A   Clear
12:53 PM 36.0 °F 31.1 °F 25.0 °F 64% 30.01 in 10.0 mi SSE 5.8 mph - N/A   Clear
1:53 PM 37.9 °F 32.1 °F 27.0 °F 65% 29.99 in 10.0 mi SSE 8.1 mph - N/A   Clear
2:53 PM 39.9 °F 35.8 °F 28.0 °F 63% 29.96 in 10.0 mi SSE 5.8 mph - N/A   Clear
3:53 PM 42.1 °F 37.1 °F 30.0 °F 62% 29.91 in 10.0 mi SE 8.1 mph - N/A   Clear
4:53 PM 43.0 °F 40.3 °F 28.0 °F 56% 29.89 in 10.0 mi SSE 4.6 mph - N/A   Clear
5:53 PM 42.1 °F 39.2 °F 30.0 °F 62% 29.87 in 10.0 mi South 4.6 mph - N/A   Clear
6:53 PM 41.0 °F 37.1 °F 28.0 °F 60% 29.86 in 10.0 mi SSW 5.8 mph - N/A   Clear
7:53 PM 39.0 °F 36.8 °F 26.1 °F 60% 29.85 in 10.0 mi SSW 3.5 mph - N/A   Clear
8:53 PM 37.9 °F - 24.1 °F 57% 29.86 in 10.0 mi Calm Calm - N/A   Clear
9:53 PM 36.0 °F - 26.1 °F 67% 29.86 in 10.0 mi Calm Calm - N/A   Clear
10:53 PM 34.0 °F 28.0 °F 19.9 °F 56% 29.83 in 10.0 mi WSW 6.9 mph - N/A   Clear
11:53 PM 34.0 °F - 19.9 °F 56% 29.80 in 10.0 mi Calm Calm - N/A   Clear